FW6618 Weather Reports


Display with metric or nautical units.
time (UTC)temp
F
wind
direction
speed
MPH
gust
MPH
rain 1hr
in
rain 24hr
in
rain mn
in
humidity
%
barometer
mb
20260506142019 58 0 0.0 0.0 0.03 0.10 0.04 95 1009.5
20260506141535 57 0 0.0 0.0 0.03 0.10 0.04 95 1009.5
20260506141019 57 0 0.0 0.0 0.03 0.10 0.04 95 1009.4
20260506140520 57 0 0.0 0.0 0.03 0.09 0.03 95 1009.2
20260506140034 57 0 0.0 0.0 0.03 0.09 0.03 95 1009.3
20260506135519 57 0 0.0 0.0 0.03 0.09 0.03 95 1009.2
20260506135018 57 0 0.0 0.0 0.02 0.08 0.02 95 1009.2
20260506134537 57 0 0.0 0.0 0.02 0.08 0.02 95 1009.0
20260506134019 57 0 0.0 0.0 0.01 0.07 0.01 95 1009.1
20260506133519 57 0 0.0 0.0 0.01 0.07 0.01 95 1009.0
20260506133037 57 0 0.0 0.0 0.01 0.07 0.01 95 1009.0
20260506132519 57 0 0.0 0.0 0.01 0.07 0.01 95 1009.0
20260506132022 57 0 0.0 0.0 0.01 0.07 0.01 95 1008.9
20260506131537 56 0 0.0 0.0 0.01 0.07 0.01 95 1009.0
20260506131017 56 0 0.0 0.0 0.01 0.07 0.01 95 1009.1
20260506130520 56 0 0.0 0.0 0.00 0.06 0.00 95 1009.0
20260506130037 56 0 0.0 0.0 0.00 0.06 0.00 95 1009.3
20260506125517 56 0 0.0 0.0 0.00 0.06 0.00 95 1009.3
20260506125023 56 0 0.0 0.0 0.00 0.06 0.00 95 1009.5
20260506124536 56 0 0.0 0.0 0.00 0.06 0.00 95 1009.6
20260506124021 56 0 0.0 0.0 0.00 0.06 0.00 95 1009.7
20260506123521 56 0 0.0 0.0 0.00 0.06 0.00 95 1009.6
20260506123035 56 0 0.0 0.0 0.00 0.06 0.00 95 1010.0
20260506122516 55 0 0.0 1.0 0.00 0.06 0.00 95 1009.8
20260506122017 55 0 0.0 1.0 0.00 0.06 0.00 95 1009.7
20260506121538 55 247 0.0 1.0 0.00 0.06 0.00 95 1009.5
20260506121018 55 0 0.0 1.0 0.00 0.06 0.00 95 1009.5
20260506120518 54 246 0.0 1.0 0.00 0.06 0.00 95 1009.5
20260506120042 54 271 0.0 3.0 0.00 0.06 0.00 95 1009.6
20260506115520 54 271 1.0 3.0 0.00 0.07 0.00 95 1009.5
20260506115019 54 176 0.0 3.0 0.00 0.07 0.00 95 1009.0
20260506114534 54 207 1.0 3.0 0.00 0.07 0.00 95 1009.1
20260506114020 54 24 1.0 2.0 0.00 0.07 0.00 95 1009.1
20260506113519 54 101 1.0 2.0 0.00 0.07 0.00 95 1009.3
20260506113034 53 327 0.0 3.0 0.00 0.07 0.00 95 1009.4
20260506112518 53 327 1.0 3.0 0.00 0.07 0.00 95 1009.4
20260506112018 53 242 0.0 2.0 0.00 0.07 0.00 95 1009.4
20260506111538 53 245 1.0 2.0 0.00 0.07 0.00 95 1009.6
20260506111019 53 200 0.0 0.0 0.00 0.07 0.00 95 1009.5
20260506110518 53 0 0.0 0.0 0.00 0.07 0.00 95 1009.4
20260506110037 53 0 0.0 0.0 0.00 0.07 0.00 95 1009.3
20260506105520 53 0 0.0 0.0 0.00 0.08 0.00 95 1009.3
20260506105020 52 0 0.0 1.0 0.00 0.08 0.00 95 1009.4
20260506104539 52 0 0.0 1.0 0.00 0.08 0.00 95 1009.1
20260506104018 52 0 0.0 1.0 0.00 0.08 0.00 95 1009.1
20260506103518 52 165 0.0 1.0 0.00 0.08 0.00 95 1009.2
20260506103046 52 172 0.0 1.0 0.00 0.08 0.00 95 1009.2
20260506102520 52 171 0.0 1.0 0.00 0.08 0.00 95 1009.1
20260506102020 52 171 0.0 1.0 0.00 0.08 0.00 95 1009.0
20260506101536 52 0 0.0 1.0 0.00 0.08 0.00 95 1009.2
20260506101024 52 170 0.0 1.0 0.00 0.08 0.00 95 1009.1
20260506100522 52 0 0.0 0.0 0.00 0.08 0.00 95 1009.0
20260506100038 52 0 0.0 0.0 0.00 0.08 0.00 95 1009.2
20260506095521 52 0 0.0 0.0 0.00 0.08 0.00 95 1009.1
20260506095020 52 0 0.0 0.0 0.00 0.08 0.00 95 1009.1
20260506094539 52 164 0.0 0.0 0.00 0.08 0.00 95 1009.2
20260506094018 52 0 0.0 0.0 0.00 0.08 0.00 95 1009.1
20260506093522 52 164 0.0 0.0 0.00 0.08 0.00 95 1009.0
20260506093037 52 0 0.0 0.0 0.00 0.08 0.00 95 1009.0
20260506092518 52 0 0.0 0.0 0.00 0.08 0.00 95 1009.2
20260506092018 52 0 0.0 0.0 0.00 0.08 0.00 95 1009.3
20260506091537 52 0 0.0 0.0 0.00 0.08 0.00 95 1009.1
20260506091019 52 0 0.0 0.0 0.00 0.08 0.00 95 1009.2
20260506090519 52 0 0.0 0.0 0.00 0.08 0.00 95 1009.3
20260506090044 52 0 0.0 0.0 0.00 0.08 0.00 95 1009.3
20260506085521 52 0 0.0 0.0 0.00 0.08 0.00 95 1009.5
20260506085019 52 0 0.0 0.0 0.00 0.08 0.00 95 1009.3
20260506084541 53 0 0.0 0.0 0.00 0.08 0.00 95 1009.5
20260506084019 53 0 0.0 0.0 0.00 0.08 0.00 95 1009.6
20260506083518 53 0 0.0 0.0 0.00 0.08 0.00 95 1009.6
20260506083036 53 164 0.0 0.0 0.00 0.08 0.00 94 1009.7
20260506082515 53 0 0.0 0.0 0.00 0.08 0.00 95 1009.6
20260506082018 53 0 0.0 0.0 0.00 0.08 0.00 94 1009.8
20260506081541 53 0 0.0 0.0 0.00 0.08 0.00 94 1009.7
20260506081017 53 0 0.0 0.0 0.00 0.08 0.00 94 1009.8
20260506080519 53 0 0.0 0.0 0.00 0.08 0.00 94 1010.0
20260506073518 54 0 0.0 0.0 0.00 0.08 0.00 94 1009.9
20260506073043 54 0 0.0 0.0 0.00 0.08 0.00 94 1010.0
20260506072518 55 0 0.0 0.0 0.00 0.08 0.00 94 1010.1
20260506072017 55 0 0.0 0.0 0.00 0.08 0.00 94 1010.0
20260506071535 55 0 0.0 0.0 0.00 0.08 0.00 94 1010.0
20260506071019 55 0 0.0 0.0 0.00 0.08 0.00 94 1010.0
20260506070517 56 164 0.0 0.0 0.00 0.08 0.00 94 1009.9
20260506062018 57 0 0.0 0.0 0.00 0.08 0.00 93 1010.2
20260506061548 57 0 0.0 0.0 0.00 0.08 0.00 93 1010.3
20260506061019 58 0 0.0 0.0 0.00 0.08 0.00 92 1010.1
20260506060523 58 0 0.0 1.0 0.00 0.08 0.00 92 1010.1
20260506051018 60 281 0.0 9.0 0.00 0.08 0.00 90 1010.6
20260506050529 60 28 3.0 9.0 0.00 0.08 0.00 90 1010.6
20260506045020 57 77 1.0 2.0 0.00 0.08 0.00 94 1010.6
20260506044546 57 0 0.0 1.0 0.00 0.08 0.00 94 1010.5
20260506044021 57 331 0.0 1.0 0.00 0.08 0.00 94 1010.7
20260506043519 57 0 0.0 2.0 0.00 0.08 0.00 94 1010.7
20260506043041 57 0 0.0 2.0 0.00 0.08 0.00 94 1010.6
20260506042519 57 337 0.0 1.0 0.00 0.08 0.00 94 1010.7
20260506042018 57 0 0.0 1.0 0.00 0.08 0.00 94 1010.5
20260506041536 57 0 0.0 0.0 0.00 0.08 0.00 95 1010.4
20260506041019 57 0 0.0 0.0 0.00 0.08 0.00 94 1010.4
20260506040519 57 0 0.0 0.0 0.00 0.08 0.00 95 1010.5
20260506040035 57 0 0.0 0.0 0.00 0.08 0.00 95 1010.4
20260506035523 57 0 0.0 0.0 0.00 0.08 0.08 95 1010.4
20260506035017 57 0 0.0 0.0 0.00 0.08 0.08 95 1010.3
20260506034533 57 0 0.0 0.0 0.00 0.08 0.08 95 1010.4
20260506034016 57 0 0.0 0.0 0.00 0.08 0.08 95 1010.4
20260506033518 57 0 0.0 0.0 0.01 0.08 0.08 95 1010.3
20260506033038 57 0 0.0 0.0 0.01 0.08 0.08 95 1010.1
20260506032516 57 0 0.0 0.0 0.01 0.08 0.08 94 1010.2
20260506032017 57 0 0.0 0.0 0.01 0.08 0.08 94 1010.1
20260506031546 57 0 0.0 0.0 0.01 0.08 0.08 94 1010.3
20260506031019 57 0 0.0 2.0 0.01 0.08 0.08 94 1010.2
20260506030521 57 0 0.0 2.0 0.01 0.08 0.08 94 1009.9
20260506030036 57 246 1.0 2.0 0.01 0.08 0.08 94 1009.7
20260506025521 57 55 1.0 2.0 0.01 0.08 0.08 94 1010.0
20260506025019 57 294 0.0 3.0 0.01 0.08 0.08 94 1010.1
20260506024543 57 25 1.0 3.0 0.01 0.08 0.08 94 1010.0
20260506024019 57 148 1.0 3.0 0.00 0.07 0.07 94 1010.4
20260506023520 57 0 0.0 0.0 0.00 0.07 0.07 94 1010.4
20260506023032 57 0 0.0 0.0 0.00 0.07 0.07 94 1010.0
20260506022518 57 0 0.0 0.0 0.00 0.07 0.07 94 1010.2
20260506022017 57 0 0.0 0.0 0.00 0.07 0.07 94 1010.0
20260506021532 57 0 0.0 0.0 0.00 0.07 0.07 94 1009.8
20260506021019 57 0 0.0 0.0 0.00 0.07 0.07 93 1010.3
20260506020519 57 0 0.0 0.0 0.00 0.07 0.07 93 1010.0
20260506020031 57 0 0.0 0.0 0.00 0.07 0.07 93 1010.0
20260506015519 57 0 0.0 0.0 0.00 0.07 0.07 93 1010.0
20260506015019 57 0 0.0 0.0 0.00 0.07 0.07 93 1010.0
20260506014535 57 0 0.0 0.0 0.00 0.07 0.07 93 1010.0
20260506014023 57 0 0.0 0.0 0.00 0.07 0.07 92 1009.9
20260506013517 57 0 0.0 0.0 0.00 0.07 0.07 92 1010.0
20260506013036 57 0 0.0 0.0 0.00 0.07 0.07 92 1009.7
20260506012518 57 0 0.0 0.0 0.00 0.07 0.07 92 1009.8
20260506012021 57 0 0.0 0.0 0.00 0.07 0.07 92 1009.8
20260506011537 57 0 0.0 0.0 0.00 0.07 0.07 92 1009.5
20260506011018 57 0 0.0 0.0 0.00 0.07 0.07 92 1009.7
20260506010519 57 0 0.0 0.0 0.00 0.07 0.07 92 1009.5
20260506010035 57 0 0.0 0.0 0.00 0.07 0.07 92 1009.6
20260506005521 57 0 0.0 0.0 0.00 0.07 0.07 92 1009.3
20260506005019 57 0 0.0 0.0 0.00 0.07 0.07 92 1009.3
20260506004537 58 0 0.0 0.0 0.00 0.07 0.07 92 1009.2
20260506004018 58 0 0.0 0.0 0.00 0.07 0.07 92 1009.2
20260506003519 58 0 0.0 0.0 0.00 0.07 0.07 91 1009.2
20260506003032 59 0 0.0 0.0 0.00 0.07 0.07 91 1009.1
20260506002519 59 0 0.0 0.0 0.00 0.07 0.07 91 1009.2
20260506002019 59 0 0.0 0.0 0.00 0.07 0.07 91 1009.1
20260506001540 60 0 0.0 0.0 0.00 0.07 0.07 90 1008.8
20260506001019 60 0 0.0 0.0 0.00 0.07 0.07 90 1008.4
20260506000518 60 0 0.0 2.0 0.00 0.07 0.07 89 1008.6
20260506000040 61 348 0.0 2.0 0.00 0.07 0.07 89 1008.7
20260505235521 61 350 0.0 2.0 0.00 0.07 0.07 88 1008.6
20260505235018 61 0 0.0 0.0 0.00 0.07 0.07 87 1008.5
20260505234535 62 0 0.0 0.0 0.00 0.07 0.07 86 1008.8
20260505234022 62 0 0.0 1.0 0.00 0.07 0.07 85 1008.9
20260505233516 63 33 0.0 1.0 0.00 0.07 0.07 84 1009.0
20260505233037 63 34 0.0 1.0 0.00 0.07 0.07 80 1009.0
20260505232519 64 33 0.0 2.0 0.00 0.07 0.07 80 1008.7
20260505232024 64 108 0.0 2.0 0.00 0.07 0.07 77 1008.8
20260505231538 64 104 1.0 2.0 0.00 0.07 0.07 75 1008.6
20260505231022 64 85 1.0 2.0 0.00 0.07 0.07 78 1008.5
20260505230518 64 89 1.0 2.0 0.00 0.07 0.07 78 1008.5
20260505230036 64 347 1.0 4.0 0.00 0.07 0.07 78 1008.6
20260505225516 65 257 0.0 4.0 0.00 0.07 0.07 76 1008.7
20260505225020 65 127 2.0 5.0 0.00 0.07 0.07 75 1009.0
20260505224537 65 145 2.0 5.0 0.01 0.07 0.07 74 1008.9
20260505224019 65 283 1.0 4.0 0.01 0.07 0.07 74 1008.9
20260505223524 66 169 1.0 4.0 0.02 0.07 0.07 72 1008.8
20260505223037 66 153 1.0 7.0 0.03 0.07 0.07 72 1008.8
20260505222519 65 104 3.0 7.0 0.03 0.07 0.07 72 1008.2
20260505222017 65 94 2.0 6.0 0.03 0.07 0.07 75 1008.3
20260505221537 65 79 2.0 6.0 0.03 0.07 0.07 77 1008.2
20260505221019 64 229 2.0 5.0 0.03 0.07 0.07 76 1008.3
20260505220517 64 155 1.0 8.0 0.03 0.07 0.07 78 1008.0
20260505220038 64 54 2.0 8.0 0.03 0.07 0.07 80 1007.7
20260505215518 64 340 1.0 8.0 0.03 0.07 0.07 82 1007.7
20260505215018 64 259 2.0 8.0 0.03 0.07 0.07 80 1007.9
20260505214600 65 37 1.0 6.0 0.02 0.06 0.06 79 1007.7
20260505214018 66 326 2.0 6.0 0.02 0.06 0.06 74 1007.8
20260505213518 67 74 2.0 4.0 0.00 0.04 0.04 69 1007.8
20260505213038 67 245 2.0 4.0 0.01 0.04 0.04 69 1007.4
20260505212521 67 319 0.0 5.0 0.01 0.04 0.04 72 1006.9
20260505212016 67 75 2.0 5.0 0.02 0.04 0.04 71 1006.6
20260505211535 67 82 2.0 5.0 0.02 0.04 0.04 73 1006.5
20260505211016 67 79 3.0 5.0 0.02 0.04 0.04 74 1006.4
20260505210516 66 102 2.0 9.0 0.02 0.04 0.04 75 1006.3
20260505210036 66 225 2.0 10.0 0.02 0.04 0.04 76 1006.1
20260505205517 66 271 4.0 11.0 0.02 0.04 0.04 77 1006.0
20260505205018 65 15 5.0 11.0 0.02 0.04 0.04 77 1006.3
20260505204535 64 321 3.0 8.0 0.02 0.04 0.04 80 1005.7
20260505204017 64 306 4.0 11.0 0.02 0.04 0.04 78 1006.0
20260505203522 65 276 4.0 11.0 0.02 0.04 0.04 75 1006.2
20260505203034 67 280 6.0 12.0 0.01 0.03 0.03 70 1006.0
20260505202517 70 319 5.0 12.0 0.00 0.02 0.02 64 1005.6
20260505202019 74 329 6.0 12.0 0.00 0.02 0.02 53 1006.1
20260505201531 76 319 2.0 12.0 0.00 0.02 0.02 47 1005.4
20260505201018 77 322 3.0 10.0 0.00 0.02 0.02 45 1004.9
20260505200515 77 285 4.0 13.0 0.00 0.02 0.02 44 1004.8
20260505200043 78 304 3.0 13.0 0.00 0.02 0.02 44 1005.0
20260505195520 78 202 3.0 15.0 0.00 0.02 0.02 42 1004.9
20260505195018 78 156 4.0 15.0 0.00 0.02 0.02 43 1004.9
20260505194532 79 177 4.0 15.0 0.00 0.02 0.02 40 1005.0
20260505194019 79 150 4.0 15.0 0.00 0.02 0.02 42 1005.0
20260505193519 79 223 3.0 17.0 0.00 0.02 0.02 41 1005.0
20260505193035 79 141 5.0 17.0 0.00 0.02 0.02 41 1005.2
20260505192519 79 207 4.0 14.0 0.00 0.02 0.02 42 1005.1
20260505192019 79 295 3.0 12.0 0.00 0.02 0.02 41 1005.1
20260505191537 79 173 3.0 12.0 0.00 0.02 0.02 42 1005.3
20260505191021 79 242 3.0 13.0 0.00 0.02 0.02 40 1005.2
20260505190518 79 352 4.0 13.0 0.00 0.02 0.02 41 1005.3
20260505190031 80 9 4.0 21.0 0.00 0.02 0.02 38 1005.3
20260505185519 79 245 5.0 21.0 0.00 0.02 0.02 39 1005.3
20260505185022 80 195 5.0 21.0 0.00 0.02 0.02 39 1005.4
20260505184537 81 153 5.0 12.0 0.00 0.02 0.02 39 1005.4
20260505184017 81 133 4.0 12.0 0.00 0.02 0.02 40 1005.5
20260505183516 80 217 5.0 12.0 0.00 0.02 0.02 40 1005.4
20260505183050 80 210 4.0 10.0 0.00 0.02 0.02 41 1005.5
20260505182517 80 285 4.0 11.0 0.00 0.02 0.02 40 1005.3
20260505182018 81 270 3.0 13.0 0.00 0.02 0.02 39 1005.4
20260505181535 80 60 6.0 13.0 0.00 0.02 0.02 44 1005.7
20260505181020 79 202 4.0 12.0 0.00 0.02 0.02 41 1005.5
20260505180518 79 130 5.0 14.0 0.00 0.02 0.02 40 1005.8
20260505180041 79 138 4.0 17.0 0.00 0.02 0.02 42 1005.6
20260505175516 78 330 3.0 17.0 0.00 0.02 0.02 41 1006.1
20260505175017 78 250 4.0 11.0 0.00 0.02 0.02 40 1006.3
20260505174545 79 160 4.0 12.0 0.00 0.02 0.02 41 1006.4
20260505174019 80 264 3.0 12.0 0.00 0.02 0.02 41 1006.3
20260505173522 80 134 3.0 16.0 0.00 0.02 0.02 41 1006.3
20260505173034 81 339 4.0 16.0 0.00 0.02 0.02 39 1006.4
20260505172516 80 250 4.0 9.0 0.00 0.02 0.02 39 1006.3
20260505172018 80 249 4.0 11.0 0.00 0.02 0.02 39 1006.5
20260505171538 80 318 4.0 14.0 0.00 0.02 0.02 42 1006.5
20260505171015 80 246 4.0 17.0 0.00 0.02 0.02 42 1006.6
20260505170517 80 221 3.0 17.0 0.00 0.02 0.02 42 1006.8
20260505170036 79 347 3.0 14.0 0.00 0.02 0.02 42 1006.9
20260505165517 79 165 4.0 12.0 0.00 0.02 0.02 42 1006.9
20260505165019 79 128 4.0 12.0 0.00 0.02 0.02 42 1007.0
20260505164535 79 234 4.0 10.0 0.00 0.02 0.02 43 1007.2
20260505164019 79 170 4.0 11.0 0.00 0.02 0.02 47 1007.1
20260505163520 78 304 3.0 18.0 0.00 0.02 0.02 45 1007.1
20260505163038 77 123 5.0 18.0 0.00 0.02 0.02 46 1007.4
20260505162518 77 39 6.0 11.0 0.00 0.02 0.02 46 1007.5
20260505162020 77 221 5.0 13.0 0.00 0.02 0.02 46 1007.5
20260505161537 76 254 3.0 13.0 0.00 0.02 0.02 48 1007.5
20260505161020 76 169 5.0 13.0 0.00 0.02 0.02 47 1007.5
20260505160522 76 201 3.0 12.0 0.00 0.02 0.02 48 1007.6
20260505153036 73 255 2.0 8.0 0.00 0.02 0.02 55 1008.2
20260505152520 72 158 4.0 14.0 0.00 0.02 0.02 55 1008.2
20260505152022 71 153 5.0 14.0 0.00 0.02 0.02 53 1008.3
20260505151538 71 247 3.0 9.0 0.00 0.02 0.02 54 1008.3
20260505151018 71 96 3.0 9.0 0.00 0.02 0.02 54 1008.5
20260505150525 71 220 3.0 9.0 0.00 0.02 0.02 54 1008.2